Location: Bukit Lungun
(2.6833°N, 113.9667°E)
Time: 09:22:53
(UTC+00:00)

CZ-4C R/B - Visible Passes

Search period start: 22 June 2021 00:00
Search period end: 02 July 2021 00:00
Orbit: 407 x 485 km, 97.7° (Epoch: 21 June)

Date Brightness Start Highest point End Pass type
(mag) Time Alt. Az. Time Alt. Az. Time Alt. Az.
23 Jun 2.8 21:46:09 10° S 21:49:25 85° W 21:52:45 10° NNW visible
24 Jun 5.9 21:10:56 10° SE 21:13:22 19° ENE 21:15:51 10° NNE visible
26 Jun 4.2 21:30:25 10° SSE 21:33:34 43° ENE 21:36:48 10° N visible
27 Jun 6.6 20:56:53 10° E 20:57:33 10° ENE 20:58:13 10° ENE visible
28 Jun 2.8 21:50:28 10° S 21:53:47 74° WSW 21:57:11 10° NNW visible
29 Jun 5.6 21:15:03 10° SE 21:17:43 22° ENE 21:20:27 10° NNE visible
01 Jul 3.9 21:34:38 10° SSE 21:37:54 51° ENE 21:41:16 10° N visible
